Regional Weather Roundup
Issued by NWS

Home | Current Version | Previous Version | Text Only | Print | Product List | Glossary On
Versions: 1 2 3 4 5 6 7 8 9 10 11 12 13 14 15 16 17 18 19 20 21 22 23 24 25 26 27 28 29 30 31 32 33 34 35 36 37 38 39 40 41 42 43 44 45 46 47 48 49 50
000
ASUS43 KLMK 252102
RWRKY
KENTUCKY REGIONAL WEATHER ROUNDUP
NATIONAL WEATHER SERVICE LOUISVILLE KY
500 PM EDT FRI JUL 25 2014

NOTE "FAIR" INDICATES FEW OR NO CLOUDS BELOW 12,000 FEET
WITH NO SIGNIFICANT WEATHER AND/OR OBSTRUCTIONS TO VISIBILITY.

KYZ001>023-026-027-061>063-070>075-252200-
WESTERN AND SOUTH CENTRAL KENTUCKY

CITY           SKY/WX    TMP DP  RH WIND       PRES   REMARKS
PADUCAH        CLOUDY    82  61  48 N6        30.06R
HENDERSON      CLOUDY    79  59  50 NW6       30.07R
OWENSBORO      PTSUNNY   79  54  41 NW9       30.06S
HOPKINSVILLE   PTSUNNY   84  57  39 VRB3      30.04R
BOWLING GREEN  PTSUNNY   84  55  36 VRB5      30.02F
GLASGOW        SUNNY     84  53  35 NE3       30.02F
$$

KYZ024-025-028>034-038-045-046-053-252200-
NORTH CENTRAL KENTUCKY

CITY           SKY/WX    TMP DP  RH WIND       PRES   REMARKS
LOUISVILLE/SDF CLOUDY    83  53  35 W10       30.02F
LOUISVILLE/LOU PTSUNNY   83  53  35 W8        30.02F
FORT KNOX      MOSUNNY   80  57  45 VRB6      30.03F
$$

KYZ035>037-039>044-047>052-055>060-089>105-252200-
NORTHEAST KENTUCKY

CITY           SKY/WX    TMP DP  RH WIND       PRES   REMARKS
LEXINGTON      MOSUNNY   81  56  42 SW9       30.03F
COVINGTON      PTSUNNY   77  56  48 SW6       30.02F
FRANKFORT      MOSUNNY   81  56  42 VRB6      30.02F
$$

KYZ054-064>069-076>088-106>120-252200-
SOUTHEAST KENTUCKY

CITY           SKY/WX    TMP DP  RH WIND       PRES   REMARKS
JACKSON        SUNNY     75  60  59 CALM      30.08R
LONDON         MOSUNNY   79  58  48 NW7       30.07F
SOMERSET       MOSUNNY   77  55  47 E5        30.06F
MIDDLESBORO    PTSUNNY   79  64  60 NW7       30.05F
MONTICELLO     CLEAR     80  60  50 VRB3      30.07F
$$



USA.gov is the U.S. government's official web portal to all federal, state and local government web resources and services.